GFSSW_prec_cloud_273.txt.gz
Cloud_Cover
95 73 93 5 8 95 91 9 5 0 0 0 0 0 0 0 0 0 0 0 0 0 0 0 0 0 0 0 0 0 0 0 37 9 100 0 1 0 0 0 0 0 0 0 0
86 100 34 21 100 64 5 0 0 0 0 0 0 0 0 2 0 0 0 0 0 0 0 0 0 0 0 1 0 0 0 0 66 94 100 14 1 5 4 0 0 0 0 0 0
5 21 6 5 5 42 75 86 50 0 0 2 0 0 0 0 0 0 0 0 0 0 0 0 0 0 0 0 0 0 0 4 7 5 9 46 4 6 4 10 0 0 0 0 0
66 6 44 100 100 99 86 5 0 0 0 1 0 0 0 0 0 0 0 0 5 0 0 0 0 0 0 0 0 0 0 0 5 5 0 2 5 4 29 59 65 3 7 5 0
81 92 100 100 97 92 84 37 10 5 20 24 3 1 10 0 0 0 0 0 0 5 1 0 0 0 0 0 0 0 0 0 3 5 5 5 3 100 76 40 3 67 97 6 3
100 100 100 100 6 24 15 7 5 10 16 26 14 1 0 0 0 0 0 0 0 4 0 0 0 0 0 0 0 0 0 0 5 31 26 5 5 5 63 30 0 0 1 1 1
100 100 97 79 100 100 100 50 6 10 35 21 1 2 0 0 0 0 0 0 0 1 5 0 0 0 0 0 0 0 0 0 5 5 5 5 5 5 85 66 0 0 0 0 0
100 100 100 100 100 100 92 5 5 1 0 0 2 0 0 0 0 0 0 0 0 0 1 0 0 0 0 0 0 0 0 0 0 4 30 33 5 5 5 4 24 0 0 0 19
100 100 100 100 46 7 14 28 5 1 0 0 0 0 0 0 0 0 0 0 0 0 0 0 0 0 0 0 0 0 0 0 0 0 5 38 5 5 5 5 5 5 1 0 0
100 95 97 34 14 6 8 11 0 57 18 0 0 0 0 0 0 0 0 0 0 0 0 0 0 0 0 0 0 0 0 0 0 0 5 38 12 5 0 4 5 5 0 0 0
100 82 26 22 5 5 25 0 2 0 0 0 0 0 0 0 0 0 0 0 0 0 0 0 0 0 0 0 0 0 0 0 0 0 0 4 48 5 5 0 0 2 0 0 1
5 29 5 5 3 0 9 0 0 0 0 0 0 0 0 0 0 0 0 0 0 0 0 0 0 0 0 0 0 0 0 0 0 0 0 1 1 5 5 0 0 1 2 0 8
3 2 0 0 7 3 0 0 0 0 0 0 0 0 0 0 0 0 0 0 0 0 0 0 2 0 0 0 0 0 0 0 0 0 0 0 3 5 5 5 2 0 0 0 0
0 0 0 1 42 0 0 0 0 0 0 0 0 0 0 0 0 0 0 0 0 0 0 0 0 0 0 0 0 0 0 0 0 0 0 0 0 3 0 0 3 0 0 0 0
0 0 0 2 0 0 0 0 0 0 0 0 0 0 0 0 0 0 0 0 0 0 0 6 0 0 0 0 0 0 0 0 0 0 0 1 1 4 95 62 7 5 2 0 0
0 0 8 0 0 0 0 0 0 0 0 0 0 0 0 0 0 0 0 0 0 0 0 23 0 0 0 0 0 0 0 0 0 0 0 0 0 2 100 100 100 5 5 1 0
0 0 28 0 0 0 0 0 0 0 0 0 0 0 0 0 0 0 0 0 3 4 26 16 0 0 0 0 0 0 0 0 20 56 2 4 12 42 97 81 76 5 66 100 8
0 32 0 0 0 0 0 0 0 0 0 0 0 0 0 0 1 0 0 5 0 0 55 99 99 98 6 0 75 97 4 15 98 100 100 100 89 100 88 77 31 5 3 36 0
9 0 0 0 0 0 0 0 0 0 0 0 0 0 0 0 0 0 3 70 1 0 6 99 57 12 5 0 3 35 97 52 5 4 14 66 95 98 98 100 94 65 5 4 5
5 0 0 0 0 0 0 0 0 0 0 0 0 0 0 0 0 0 13 0 0 0 0 40 0 76 56 0 1 2 27 40 69 27 16 26 86 100 100 88 100 100 100 82 0
3 0 2 0 0 0 0 0 1 0 0 0 0 0 0 0 0 0 0 0 3 1 0 0 0 2 38 26 96 89 83 89 3 4 39 100 100 100 84 100 93 92 54 23 100
5 5 0 0 0 0 0 0 0 0 0 0 0 0 0 0 0 0 0 0 0 9 15 4 0 0 1 16 0 0 0 0 4 99 87 30 3 36 97 92 11 34 32 1 100
5 5 5 3 0 3 2 1 4 1 5 5 5 0 0 0 0 0 0 5 5 0 79 100 44 18 0 0 4 1 0 5 5 0 0 8 79 89 8 92 100 42 44 0 97
5 12 7 0 1 3 5 43 54 5 6 28 80 30 5 5 0 1 0 2 0 1 4 0 81 100 92 40 50 80 5 5 5 4 5 2 27 92 37 100 100 3 100 51 7
5 5 5 5 5 5 29 100 100 100 100 5 6 5 5 5 3 4 3 0 0 1 0 5 0 2 77 100 100 38 4 4 0 0 0 0 3 5 4 0 0 1 0 0 0
5 5 5 8 5 5 46 99 41 6 100 8 18 85 100 98 81 31 2 3 0 0 3 1 0 0 0 0 15 51 18 99 42 3 0 0 0 0 5 5 5 2 0 21 0
25 14 22 27 79 84 26 31 5 20 21 39 100 98 100 100 100 100 42 7 5 4 3 0 0 0 0 0 0 0 5 5 5 5 4 0 0 5 5 5 2 0 12 23 0

GFSSW_prec_cloud_276.txt.gz
Cloud_Cover
100 100 100 100 98 74 8 5 5 5 0 0 0 0 0 12 6 0 0 0 0 0 0 0 0 0 0 0 0 0 0 0 0 86 56 17 100 6 0 0 0 0 0 0 0
100 100 63 6 21 95 18 14 5 0 0 0 2 0 4 0 0 0 0 0 0 0 0 0 0 0 0 0 0 0 0 0 9 91 100 24 10 100 1 0 0 0 0 0 0
100 100 100 100 58 5 5 90 5 24 75 5 1 6 10 0 0 0 0 0 0 0 0 0 0 0 0 0 0 0 0 0 13 100 84 38 77 11 53 45 94 89 100 71 0
100 100 20 5 5 5 12 18 65 98 81 11 28 26 2 0 0 0 0 0 0 0 0 0 0 0 0 0 0 0 0 0 0 65 2 0 99 10 4 86 100 100 100 100 15
100 100 100 21 5 11 84 100 100 100 88 71 30 26 0 0 0 0 0 0 0 0 0 0 0 0 0 0 0 0 0 0 0 2 3 0 1 31 17 91 100 100 100 100 14
100 99 94 98 97 99 100 100 79 5 16 24 36 3 1 0 0 0 0 0 0 0 0 0 0 0 0 0 0 0 0 0 3 0 1 0 0 6 6 95 100 100 100 55 0
100 100 100 100 100 100 100 100 21 5 13 53 45 3 0 0 0 0 0 0 0 0 0 0 0 0 0 0 0 0 0 0 0 0 0 0 0 0 0 5 1 97 2 0 0
100 100 100 100 100 100 98 97 100 100 100 100 45 7 0 0 0 0 0 0 0 0 0 0 0 0 0 0 0 0 0 0 0 0 0 0 0 0 0 5 28 62 100 49 92
100 100 100 81 61 100 100 100 100 91 26 18 0 0 0 0 0 0 0 0 0 0 0 0 0 0 0 0 0 0 0 0 0 0 0 0 0 0 4 2 29 100 100 100 9
100 100 100 100 100 100 100 100 40 85 20 0 0 0 0 0 0 0 0 0 0 0 0 0 0 0 0 0 0 2 0 0 0 0 0 0 0 0 0 0 5 100 100 45 99
100 99 100 100 100 100 100 100 2 0 0 0 0 0 0 0 0 0 0 0 0 0 0 0 0 0 0 0 0 0 0 0 2 0 1 4 1 0 0 1 0 0 0 73 1
100 100 100 100 100 61 14 5 0 0 0 0 0 0 0 0 0 0 0 0 0 0 0 0 0 0 0 0 0 0 0 0 0 2 0 0 0 0 2 5 0 0 1 78 38
100 96 5 3 7 2 0 0 0 0 0 0 0 0 0 0 0 0 0 0 0 0 0 0 12 0 0 0 0 0 0 0 0 0 0 0 0 23 23 7 2 0 0 19 70
5 5 16 5 2 0 0 0 0 0 0 0 0 0 0 0 0 0 0 0 0 0 0 0 0 0 0 0 0 0 0 0 0 0 0 0 0 3 2 4 13 0 0 0 26
5 5 0 0 0 0 0 0 0 0 57 0 0 0 0 0 0 0 0 0 0 0 1 1 2 0 0 0 0 0 1 0 0 0 0 2 0 0 100 16 0 0 0 0 0
0 0 0 0 0 0 0 0 0 0 0 0 0 0 0 0 0 0 0 0 0 0 0 1 96 1 0 12 1 0 0 0 0 0 0 6 3 61 24 100 99 100 91 93 22
0 0 1 0 0 0 0 0 0 0 0 0 0 0 3 4 3 0 0 0 2 43 48 3 25 60 1 0 0 1 0 0 4 18 16 90 94 5 94 82 14 78 6 94 100
0 12 0 0 0 0 0 0 0 0 0 0 0 0 0 0 1 0 3 2 7 0 9 99 99 89 100 33 68 100 88 79 5 99 78 89 100 100 100 100 12 5 6 4 10
0 0 0 0 0 0 0 0 0 0 0 0 0 0 0 0 0 0 4 2 55 29 0 0 34 32 95 76 0 2 98 58 24 4 4 69 55 100 100 100 36 6 4 4 24
0 0 0 0 0 0 0 0 0 0 0 0 0 0 0 73 0 0 3 19 3 0 0 1 9 85 63 21 0 0 0 93 100 22 1 1 72 100 88 92 45 90 100 100 100
0 0 0 5 5 5 0 5 0 4 1 0 0 0 0 2 0 1 5 46 0 0 0 0 0 0 7 6 58 7 43 78 52 2 26 78 94 34 4 96 95 98 44 76 80
0 5 0 0 5 5 5 5 0 2 2 0 0 0 1 3 5 0 0 0 0 0 0 0 0 0 0 1 3 0 2 100 100 8 27 21 98 100 100 100 44 96 99 5 6
4 4 0 5 4 5 30 1 5 0 0 0 72 100 96 5 0 0 0 4 5 0 1 0 0 0 0 4 4 0 0 0 0 0 0 0 92 100 90 97 100 100 84 37 6
5 4 5 3 5 4 5 4 1 0 0 5 100 100 36 5 1 2 5 6 99 6 5 0 0 0 0 1 1 0 7 100 100 28 0 0 3 97 100 100 100 91 42 100 51
5 5 5 5 5 1 5 5 1 5 0 28 58 10 5 3 4 5 83 78 91 77 5 0 2 0 0 0 0 0 1 55 100 100 0 0 0 0 4 1 6 17 57 98 61
5 5 81 5 5 5 5 0 5 3 5 39 5 5 5 5 9 5 39 100 57 6 5 0 0 0 0 0 0 0 0 0 1 83 28 9 0 2 0 3 0 0 0 0 1
50 13 49 6 5 17 14 5 11 97 15 89 6 5 5 53 100 100 100 100 5 5 4 5 5 5 0 0 0 0 5 0 0 0 0 2 48 49 9 1 0 0 0 0 0

GFSSW_prec_cloud_279.txt.gz
Cloud_Cover
52 100 100 100 100 100 100 100 99 9 5 4 0 0 11 0 0 0 0 0 0 0 0 0 0 0 0 0 0 0 0 0 0 5 24 36 87 62 100 99 74 0 0 0 0
100 100 95 100 100 100 100 100 40 19 12 4 24 4 6 1 0 0 0 0 0 0 0 0 0 0 0 0 0 0 0 0 0 5 67 100 100 87 16 43 21 0 0 1 5
100 100 100 100 100 100 100 100 83 61 44 22 22 30 78 5 0 0 0 0 0 0 0 0 0 0 0 0 0 0 0 0 0 3 42 82 20 80 50 80 13 100 37 100 100
100 100 100 100 100 100 100 61 54 21 25 20 56 34 49 100 10 0 0 0 0 0 0 0 0 0 0 0 0 0 0 0 0 2 38 100 100 92 71 14 1 29 98 100 100
100 100 100 100 100 100 100 36 37 20 30 62 100 100 66 1 0 0 0 0 0 0 0 0 0 0 0 0 0 0 0 0 0 0 0 9 96 80 100 80 89 100 100 100 100
100 100 100 100 100 100 100 100 99 83 62 100 100 94 0 0 0 3 3 0 0 0 0 0 0 0 0 0 0 0 0 0 0 0 0 0 1 32 58 7 100 100 100 76 100
100 100 100 100 100 100 100 100 85 100 100 100 100 87 5 5 51 5 5 1 0 0 0 0 0 0 0 0 0 0 0 0 0 0 0 0 0 0 0 4 93 100 92 100 100
95 100 100 100 100 100 100 100 100 100 100 100 69 93 100 92 95 68 14 0 0 0 0 0 0 0 0 0 0 0 0 0 0 0 0 0 0 0 0 4 99 48 100 100 100
100 99 100 100 100 100 100 100 100 100 74 65 100 100 100 69 13 1 0 0 0 0 0 0 0 0 0 0 0 0 0 0 0 0 0 0 0 0 0 7 99 10 100 100 100
98 100 100 100 100 100 100 100 100 100 99 100 100 36 3 0 0 0 0 0 0 0 0 0 0 0 0 0 0 0 0 0 0 0 0 0 0 0 0 0 88 100 100 100 100
100 100 100 100 100 100 100 100 100 100 94 68 6 4 0 0 0 0 0 0 0 0 0 0 0 0 0 0 0 0 0 0 0 0 0 0 0 0 0 0 0 21 100 100 100
100 100 100 100 100 100 100 95 74 5 6 5 2 0 0 0 0 0 0 0 0 0 0 0 0 0 0 0 0 0 0 0 0 0 0 0 0 0 0 0 0 0 29 95 48
100 100 100 100 100 34 5 24 5 93 12 0 0 0 0 0 0 0 0 0 0 0 0 0 0 2 0 0 0 0 0 0 0 0 0 0 0 0 0 0 4 0 0 0 29
100 84 100 100 59 46 100 78 3 0 0 0 0 0 0 0 0 0 0 0 0 0 0 0 2 5 0 0 0 0 0 0 0 0 0 0 0 0 0 0 0 0 0 0 0
98 100 100 86 17 10 40 2 0 0 5 0 0 0 0 0 0 0 0 0 0 0 0 0 2 59 0 0 3 0 0 0 0 0 0 0 0 0 0 0 0 2 0 0 0
96 38 5 0 1 1 0 0 0 0 0 0 0 0 0 0 0 0 0 0 0 0 0 0 5 2 0 0 4 0 0 0 0 0 0 0 0 0 0 1 80 38 0 26 75
28 5 1 0 0 0 0 0 0 0 0 0 0 0 0 28 3 2 0 0 0 0 14 0 26 1 2 0 0 1 0 0 5 2 1 5 3 95 46 72 82 69 100 100 96
0 0 3 0 0 0 0 0 0 0 0 0 0 0 0 2 0 1 0 0 2 0 0 29 3 59 7 90 26 28 97 46 33 5 82 94 71 100 100 91 100 97 10 76 99
0 0 0 0 0 0 0 0 0 0 0 0 0 0 0 0 0 0 0 15 2 0 0 0 2 3 1 5 31 52 4 94 63 3 3 98 61 98 97 100 19 95 95 12 5
4 0 0 0 0 0 0 0 0 0 0 0 0 0 0 4 0 0 0 63 5 0 0 0 0 1 57 70 68 42 1 2 30 0 26 2 0 5 100 100 100 100 92 9 15
0 0 0 0 0 0 0 0 0 0 0 0 0 0 0 0 2 0 0 0 0 2 0 0 0 0 0 1 11 3 71 5 1 0 10 3 3 13 79 96 100 100 100 30 96
0 0 0 0 0 0 0 4 0 2 0 0 0 0 0 0 13 49 0 0 2 0 0 11 12 0 0 0 1 5 46 5 0 0 5 82 100 100 8 86 100 4 100 100 100
0 0 0 0 0 0 1 0 0 0 0 0 0 0 0 0 6 6 0 0 0 4 0 15 4 0 0 0 0 1 0 0 0 0 0 100 100 100 15 5 85 100 88 93 83
0 0 3 0 0 0 1 1 4 0 0 4 0 0 0 0 0 5 2 0 4 4 36 3 2 0 0 0 0 0 0 0 0 0 0 1 85 100 99 83 29 90 100 92 50
0 0 0 0 2 0 5 5 3 5 4 10 4 0 2 0 0 1 5 0 2 100 100 88 29 0 0 0 0 0 4 0 0 0 0 10 4 51 100 92 0 1 100 100 18
0 0 0 0 5 0 5 5 5 5 5 5 3 5 5 3 13 100 4 4 6 95 99 77 5 5 23 78 4 0 3 0 0 0 0 5 3 85 97 16 2 0 0 81 86
0 0 1 4 5 6 24 0 5 5 7 4 20 24 5 100 100 12 4 5 5 4 57 48 99 66 18 3 1 7 61 4 0 0 0 0 1 0 0 0 2 3 4 0 0

GFSSW_prec_cloud_282.txt.gz
Cloud_Cover
95 62 100 99 100 18 100 60 100 100 100 100 100 98 19 1 0 1 16 0 0 0 0 0 0 0 0 0 0 0 0 0 5 26 43 5 20 60 84 98 100 100 42 83 100
92 100 87 19 11 82 57 98 100 100 100 100 93 46 17 5 2 2 48 14 0 0 0 0 0 0 0 0 0 0 0 1 5 1 5 32 23 5 3 13 100 100 96 2 1
100 93 96 100 89 92 100 100 100 100 100 57 75 96 5 4 0 0 82 93 0 0 0 0 0 0 0 0 0 0 0 3 5 3 0 4 88 4 95 5 70 89 28 0 5
100 100 100 100 100 100 100 100 100 100 99 84 93 23 6 0 0 100 62 5 0 0 0 0 0 0 0 0 0 0 0 0 5 0 1 5 96 5 11 81 55 5 0 1 79
100 100 100 100 100 100 100 100 100 100 100 99 77 12 21 5 5 9 50 1 0 0 0 0 0 0 0 0 0 0 0 0 4 2 1 5 92 67 55 11 4 5 2 4 97
99 100 100 100 100 100 100 100 100 99 100 100 100 11 94 50 16 95 100 1 0 15 5 4 0 0 0 0 0 0 0 0 0 0 0 5 63 86 50 61 5 10 61 97 37
100 100 100 100 100 100 100 100 100 100 100 99 100 28 98 98 100 100 26 100 72 6 7 5 0 0 0 0 0 0 0 0 0 0 0 0 0 2 5 10 0 78 100 100 100
100 100 100 100 100 100 100 100 100 81 96 100 100 100 100 100 100 100 100 100 100 86 1 0 0 0 0 0 0 0 0 0 0 0 0 0 0 0 0 0 0 34 85 100 100
100 100 100 100 86 53 68 93 83 96 95 96 100 100 100 100 100 100 54 42 1 0 0 0 0 0 0 0 0 0 0 0 0 0 0 0 0 0 0 0 0 5 1 19 99
100 100 100 100 100 100 47 82 24 92 75 100 100 100 100 100 94 59 51 4 0 0 0 0 0 0 0 0 0 0 0 0 0 0 0 0 0 0 0 0 0 4 18 5 100
100 100 100 100 100 100 100 100 100 100 100 100 100 100 100 82 6 56 6 4 0 0 0 0 0 0 0 0 0 0 0 0 0 0 0 0 0 0 0 0 0 0 2 5 82
98 94 94 91 100 79 97 39 87 100 100 100 99 95 82 12 4 10 0 0 0 0 0 0 0 0 0 0 0 0 0 0 0 0 0 0 0 0 0 1 0 0 0 0 5
100 100 100 100 94 44 70 100 100 100 49 0 1 0 5 1 0 0 0 0 0 0 0 0 0 0 0 0 0 0 0 0 0 0 0 0 0 0 1 5 0 14 4 2 5
100 100 100 100 97 92 100 100 100 60 3 0 0 0 0 0 0 0 0 0 0 0 0 0 0 0 0 0 0 0 0 0 0 0 0 0 0 0 0 0 27 72 17 5 5
100 100 100 100 100 100 100 5 5 6 12 8 5 2 0 0 0 0 0 0 0 0 0 0 1 2 2 0 0 0 0 0 0 0 0 0 0 0 0 0 1 4 0 4 7
100 100 100 100 100 99 11 5 0 1 0 0 0 0 0 0 0 0 0 0 0 0 0 0 0 1 1 0 3 0 0 0 0 0 0 4 1 0 0 0 0 0 5 0 16
100 100 100 100 96 10 58 2 0 0 0 0 0 0 0 0 0 0 0 0 0 0 0 0 0 0 2 3 0 0 0 0 0 0 3 97 9 0 2 5 1 3 53 10 5
100 100 99 90 6 5 5 0 0 0 0 0 0 0 0 0 0 0 0 0 0 0 0 0 0 28 8 6 5 0 0 0 0 0 0 25 4 43 58 57 13 3 10 18 88
100 100 86 5 5 5 0 0 0 0 0 0 0 0 0 0 0 0 0 0 0 0 0 0 0 0 0 4 1 4 3 3 2 1 27 1 2 5 90 45 96 79 9 74 100
100 70 88 45 2 0 0 0 0 0 0 0 0 0 0 0 0 0 3 2 0 0 0 0 0 4 0 64 7 0 0 0 0 0 0 0 0 5 20 1 2 100 100 75 98
98 77 46 93 13 0 0 0 0 0 0 0 0 0 0 0 0 0 0 0 0 0 0 0 0 0 0 0 0 1 0 0 0 0 0 0 1 5 1 0 2 42 26 45 100
7 5 1 0 0 0 0 0 0 0 0 0 0 0 0 0 0 0 0 0 0 0 0 0 0 0 0 0 4 1 0 1 0 0 0 0 0 6 0 0 0 20 96 50 98
100 99 5 0 0 0 0 0 0 0 0 2 0 0 0 0 0 0 0 0 0 0 0 0 5 5 5 0 0 0 5 5 5 5 0 0 0 0 0 0 4 3 47 53 98
100 100 100 1 0 0 0 0 0 0 0 0 1 0 0 0 0 1 0 0 0 0 0 0 5 5 14 4 0 0 0 0 5 5 9 4 3 0 0 0 0 15 90 100 100
2 7 2 0 0 0 0 0 0 0 0 5 0 0 0 5 5 5 0 0 0 0 0 0 1 0 5 59 0 0 0 0 0 0 5 6 5 4 0 0 0 0 3 97 100
3 2 0 0 0 0 0 0 2 5 1 5 5 2 5 6 5 2 0 0 0 5 5 5 0 0 1 5 4 0 5 0 3 0 0 5 5 0 0 0 0 0 0 5 97
0 0 0 0 0 0 0 0 0 5 5 5 50 25 3 5 5 5 5 5 5 9 5 5 4 4 10 7 5 5 42 35 5 0 0 0 0 4 5 0 1 0 0 0 0

GFSSW_prec_cloud_285.txt.gz
Cloud_Cover
100 100 73 70 26 39 100 45 18 57 93 53 94 100 100 98 2 5 0 5 4 74 20 0 0 0 0 0 0 0 0 0 2 5 15 0 5 5 13 95 77 98 93 98 22
100 97 5 5 16 96 89 100 100 24 25 90 100 100 100 81 12 36 30 19 0 83 85 3 0 0 0 0 0 0 0 0 5 5 5 0 0 0 18 51 56 77 100 100 100
100 100 100 100 78 17 13 22 86 100 100 100 100 100 82 13 5 5 5 5 8 76 4 3 0 0 0 0 0 0 0 0 5 61 24 1 0 2 36 67 98 26 3 45 100
100 100 100 95 86 40 97 100 100 100 100 100 100 98 90 100 5 5 31 59 2 15 53 5 2 18 0 0 0 0 0 0 3 2 5 0 0 0 0 4 5 2 0 24 100
64 72 100 99 100 100 100 100 100 100 100 100 100 100 100 73 100 49 5 6 4 100 100 63 91 3 0 0 0 0 0 0 0 0 2 0 0 0 0 0 0 0 4 0 0
100 62 64 89 98 100 100 100 100 100 100 100 100 98 45 98 53 13 17 5 84 100 78 91 100 88 10 6 0 0 0 0 0 0 2 5 1 0 0 0 0 0 0 0 0
100 27 99 100 100 100 100 100 100 100 100 100 100 100 100 97 96 19 61 68 100 100 100 100 89 70 82 50 0 0 0 0 0 3 5 4 3 3 0 0 5 0 3 0 0
100 100 100 47 48 99 100 100 100 100 100 100 100 100 96 36 90 49 100 100 100 98 7 5 4 2 0 0 0 0 0 0 0 0 6 25 1 51 4 3 0 0 0 0 0
100 98 100 100 98 100 100 100 100 100 100 100 100 67 60 23 83 100 100 100 100 84 96 78 5 4 0 0 0 0 0 0 0 0 6 6 1 5 0 0 0 0 0 0 0
100 98 100 100 100 100 100 100 100 100 100 76 28 83 54 100 100 100 100 100 98 82 25 1 0 0 0 0 0 0 0 0 0 0 0 0 0 0 0 0 0 0 0 0 0
100 100 100 100 100 100 100 100 100 95 100 64 100 100 100 100 100 100 100 77 7 5 2 0 0 0 0 0 0 0 0 0 0 0 0 0 0 0 0 0 0 0 0 0 0
100 100 100 100 100 100 100 100 100 100 100 88 68 100 100 100 99 68 1 0 0 0 0 0 0 0 0 0 0 0 0 0 0 0 0 3 2 0 0 1 2 0 0 0 0
100 100 100 100 100 100 100 100 100 100 100 69 99 100 100 97 39 1 0 0 0 0 0 0 0 0 0 0 0 0 0 0 0 0 0 74 26 0 0 0 0 0 0 0 0
100 100 100 100 100 100 99 100 100 100 69 74 100 100 100 38 1 0 0 0 0 0 0 0 0 0 0 0 0 0 0 0 0 0 0 5 1 0 0 0 0 0 0 1 4
100 100 100 100 97 100 100 100 100 100 45 58 24 1 0 0 0 0 0 0 0 0 0 0 0 0 0 0 0 0 0 0 0 0 0 2 0 0 0 0 0 0 0 0 0
74 100 100 100 100 100 100 100 100 100 92 7 2 6 0 0 0 0 0 0 0 0 0 0 0 0 0 0 0 0 0 0 0 0 0 0 0 0 2 0 0 0 0 0 0
100 100 100 100 100 100 100 100 100 100 99 36 0 0 0 0 0 0 0 0 0 0 0 0 0 0 0 0 0 0 0 0 0 0 0 0 3 0 0 0 0 0 0 0 1
100 99 100 100 100 100 100 100 100 90 5 0 0 0 0 0 0 0 0 0 0 0 0 0 0 0 0 0 0 0 0 0 0 0 0 0 1 0 0 0 0 0 14 5 38
100 78 90 100 100 100 100 97 8 5 0 0 0 0 0 0 0 0 0 0 0 0 0 0 0 0 0 0 0 0 0 0 0 0 0 0 0 0 0 0 0 0 10 75 9
93 94 19 14 70 93 100 11 1 0 0 0 0 0 0 0 0 0 5 0 0 0 0 0 0 0 0 0 0 3 0 0 0 0 0 0 0 0 0 0 0 0 0 69 52
100 99 86 98 100 97 6 2 5 3 0 0 0 0 0 0 0 0 5 4 0 0 0 0 0 0 0 0 1 2 0 0 0 0 0 0 0 0 0 0 0 0 0 64 98
48 92 100 100 60 76 100 9 5 0 0 0 0 0 0 0 0 0 0 0 0 0 0 0 0 0 0 0 0 0 0 0 0 0 0 0 0 0 0 0 0 0 0 0 4
96 27 89 50 34 88 4 0 0 0 0 0 0 0 0 0 5 0 0 0 0 0 0 0 0 0 0 0 0 0 0 0 0 0 4 1 5 2 1 0 0 0 0 5 2
90 62 79 3 14 87 92 5 5 5 2 0 0 0 0 3 0 0 0 0 2 5 2 3 0 0 0 0 0 0 0 0 0 0 0 0 4 0 5 5 1 0 0 4 82
88 91 100 100 100 100 48 5 3 3 0 0 0 1 0 0 0 0 0 0 2 5 3 4 3 0 5 0 0 0 0 2 0 0 0 5 0 0 1 3 28 16 2 0 15
94 100 100 100 100 100 5 0 0 0 0 0 0 0 0 0 0 0 0 0 5 5 5 5 5 4 5 3 0 0 23 5 0 1 5 0 0 0 0 0 3 5 5 29 2
100 100 100 100 100 20 0 0 0 0 0 0 0 0 0 0 0 0 5 2 4 5 5 5 5 75 5 5 2 12 27 5 35 100 2 2 1 0 0 0 0 0 1 8 80

GFSSW_prec_cloud_288.txt.gz
Cloud_Cover
100 100 100 100 100 100 100 100 11 10 31 18 12 37 20 97 100 100 100 0 4 5 5 5 34 3 0 0 0 0 0 0 2 3 5 3 0 0 0 5 2 6 40 26 75
98 100 100 100 100 100 100 27 18 51 72 82 43 26 39 100 100 100 8 71 4 11 20 35 13 0 0 0 0 0 0 0 3 5 5 0 0 0 3 4 6 4 2 0 52
95 72 100 100 100 100 59 19 100 76 28 26 70 38 100 100 100 100 100 7 5 72 5 5 100 83 44 5 0 0 0 0 4 5 5 5 1 0 5 3 0 0 5 31 79
100 89 100 100 100 99 57 100 36 25 59 80 98 100 100 100 100 86 5 6 61 54 61 6 94 100 11 48 32 0 0 0 0 1 22 53 1 4 0 0 0 0 0 3 34
63 96 87 99 99 81 100 100 88 100 100 99 93 100 100 100 100 99 6 10 75 6 5 34 99 100 100 66 5 0 0 0 0 2 5 5 4 5 3 0 0 0 0 0 0
65 46 100 86 87 100 100 100 90 100 100 92 100 100 100 100 96 5 12 58 19 8 11 87 100 100 98 6 5 5 5 0 0 0 5 5 0 0 0 0 0 0 0 0 0
100 77 34 12 7 52 82 100 99 100 100 100 100 98 100 100 99 100 83 23 26 29 100 62 85 80 100 100 83 8 0 0 0 0 0 5 3 0 0 0 0 0 0 0 0
100 96 100 90 92 77 100 100 96 50 100 100 100 100 99 92 70 100 77 5 9 46 100 100 100 98 100 96 16 4 0 0 0 0 2 5 5 5 4 0 0 0 0 0 0
100 100 100 100 100 100 100 100 100 100 100 100 100 100 100 100 100 100 23 97 100 100 100 100 100 100 84 1 0 0 0 0 0 0 0 0 3 24 5 1 0 0 1 0 0
99 100 100 100 100 100 100 100 100 100 100 100 100 100 100 13 8 99 100 100 100 100 100 100 82 20 1 0 0 0 0 0 0 0 0 0 0 1 1 0 0 5 11 5 0
100 100 100 100 100 100 100 100 100 100 100 100 81 26 8 50 46 50 91 100 100 78 25 0 0 0 0 0 0 0 0 0 0 0 0 0 0 0 0 0 0 0 5 5 4
100 100 89 100 100 100 70 51 100 100 100 55 8 72 49 72 98 99 100 100 99 100 12 0 0 0 0 0 0 0 0 0 0 0 0 0 0 0 0 0 0 0 1 5 5
100 100 100 100 100 100 100 100 100 85 94 66 80 83 100 100 100 100 100 100 31 1 0 0 0 0 0 0 0 0 0 0 0 0 0 0 0 0 0 0 0 0 0 0 0
100 100 100 100 100 100 100 100 100 100 100 80 97 97 100 100 100 77 20 2 0 0 0 0 0 0 0 0 0 0 0 0 0 0 0 0 0 0 0 0 0 0 0 0 0
100 100 100 100 100 100 100 100 100 100 100 99 100 100 100 100 27 2 0 0 0 0 0 0 0 0 0 0 0 0 0 0 0 0 0 0 0 0 0 0 0 0 0 0 0
100 100 99 90 100 81 87 100 100 100 97 100 100 100 100 96 30 4 0 0 0 0 0 0 0 0 0 0 0 0 0 0 0 0 0 0 0 0 0 0 0 0 0 0 0
100 100 56 58 30 100 45 43 100 89 92 100 100 100 100 95 87 8 0 0 0 0 0 0 0 0 0 0 0 0 0 0 0 0 0 0 0 0 0 0 0 0 0 3 68
100 100 49 99 24 48 61 28 100 100 100 100 100 100 38 2 0 0 0 0 0 0 0 0 0 0 0 0 0 0 0 0 0 0 0 0 0 0 0 0 0 0 0 4 44
100 88 60 78 6 5 10 100 100 100 100 100 96 73 13 4 0 0 0 0 0 0 0 0 0 0 0 0 0 0 0 0 0 0 0 0 0 0 0 0 0 0 0 0 72
15 7 97 95 13 95 86 100 100 100 100 100 11 5 5 0 0 0 0 0 0 0 0 0 0 0 0 0 0 0 0 1 0 0 0 0 0 0 0 0 0 0 0 0 0
0 68 53 100 82 94 100 100 100 100 100 98 3 0 0 0 0 0 0 0 0 0 0 0 0 0 0 0 0 0 0 0 0 0 0 0 0 0 0 0 0 0 0 0 0
5 93 100 100 100 99 100 75 93 100 100 21 5 2 0 0 0 0 0 0 0 0 0 0 0 0 0 5 2 0 0 0 0 0 0 0 0 0 0 0 0 0 0 0 0
29 100 100 100 100 100 100 100 83 100 100 16 1 1 5 5 5 0 0 0 0 0 0 0 0 0 0 2 5 5 0 0 0 0 0 0 1 0 5 5 1 0 0 0 0
5 100 100 98 100 100 99 76 31 53 7 2 11 32 7 5 0 0 0 0 0 4 0 0 0 0 0 0 4 5 5 5 2 0 0 0 4 0 5 5 5 5 4 0 0
96 80 100 100 100 100 53 55 50 39 29 96 38 5 5 0 0 0 0 0 0 0 0 0 0 0 0 4 5 5 5 5 0 0 0 0 1 5 0 3 5 5 5 3 4
70 60 74 93 100 100 78 43 5 83 100 100 80 5 0 0 0 0 0 0 0 3 0 1 5 2 4 0 5 22 51 42 2 2 2 0 13 2 0 0 0 0 3 4 5
79 49 90 82 100 100 100 82 52 100 100 100 97 4 0 0 0 0 0 0 4 0 4 5 4 3 5 5 5 92 66 5 5 1 5 2 5 5 0 0 0 9 5 5 5

GFSSW_prec_cloud_291.txt.gz
Cloud_Cover
100 100 100 100 100 100 84 8 52 94 72 11 30 37 81 98 14 5 59 93 100 81 1 5 5 2 5 95 0 0 0 0 0 0 0 0 0 0 0 0 0 0 1 1 1
100 100 100 100 100 100 73 100 100 100 99 70 100 85 100 100 5 85 92 100 100 45 5 2 8 5 7 82 5 2 22 1 0 0 0 0 0 0 0 1 2 1 0 0 0
100 100 69 92 100 100 100 100 100 100 43 50 100 100 82 11 22 91 100 100 92 0 4 4 5 5 5 5 5 4 2 0 0 0 0 0 0 0 0 4 79 0 0 0 0
94 98 100 87 83 100 100 100 99 36 19 35 83 94 32 35 91 99 100 100 20 0 3 5 1 4 8 6 9 5 0 0 0 0 4 2 4 0 0 0 3 0 0 0 0
100 100 100 46 99 100 100 100 100 96 98 35 99 7 76 79 90 100 84 5 5 26 100 5 9 5 7 8 31 22 47 13 17 0 4 2 5 5 0 2 0 0 0 0 0
100 90 99 66 100 100 100 80 52 100 100 27 36 85 88 88 100 100 100 70 65 100 5 31 5 2 14 50 7 29 2 0 0 0 0 0 2 0 0 0 0 1 0 0 0
100 100 97 91 100 100 70 58 40 65 71 53 6 87 97 100 100 100 57 46 100 100 100 11 5 5 28 31 5 46 5 0 0 0 0 0 0 2 1 0 0 3 0 0 0
100 100 100 100 100 100 58 82 46 60 67 42 17 56 100 100 100 100 100 100 100 87 5 6 75 100 100 100 100 60 4 0 0 0 0 0 0 0 0 0 0 5 6 0 0
100 100 100 100 97 73 95 100 37 83 55 74 59 100 100 98 91 100 99 68 10 4 52 45 100 100 88 97 36 0 0 0 0 0 0 0 0 0 0 0 1 4 0 0 0
100 100 100 100 88 89 95 99 76 87 86 86 100 100 61 31 99 22 16 48 5 5 12 72 86 5 2 3 0 0 0 0 0 0 0 0 0 0 0 0 0 0 2 0 0
100 100 100 100 100 100 98 100 100 100 100 100 100 86 83 100 42 94 85 16 70 71 100 100 100 96 1 0 0 0 0 0 0 0 0 0 0 0 0 0 0 0 0 0 0
100 100 96 100 100 100 100 100 98 92 100 55 99 100 100 86 38 5 16 43 99 70 30 86 52 1 0 0 0 0 0 0 0 0 0 0 0 0 0 0 0 0 0 0 0
100 100 100 100 100 100 100 100 100 100 62 84 65 100 100 99 92 95 100 58 92 94 12 0 0 0 0 0 0 0 0 0 0 0 0 0 0 0 0 0 0 0 0 0 0
100 100 99 100 66 89 93 100 100 100 100 98 99 100 100 100 100 100 100 85 60 5 0 0 0 0 0 0 0 0 0 0 0 0 0 0 0 0 0 0 0 0 0 0 0
100 100 100 100 96 100 100 100 100 100 97 100 100 100 100 100 100 100 100 95 17 5 4 0 0 0 0 0 0 0 0 0 0 0 0 0 0 0 0 0 0 0 0 0 0
100 89 100 100 100 100 100 100 100 100 100 100 100 100 100 100 100 100 100 100 37 1 1 0 0 0 0 0 0 0 0 0 0 0 0 0 0 0 0 0 0 0 0 0 0
100 100 94 100 90 100 100 100 100 100 100 100 82 12 95 100 100 100 98 5 0 0 0 0 0 0 0 0 0 0 0 0 0 0 0 0 0 0 0 0 0 0 0 0 20
100 100 100 100 100 100 56 99 100 100 81 57 5 7 100 100 98 5 5 1 0 0 0 0 0 0 0 0 0 0 0 0 0 0 0 0 0 0 0 0 0 0 0 2 23
100 100 100 100 87 80 58 80 83 40 82 44 6 84 100 100 100 27 5 0 0 0 0 0 0 0 0 0 0 0 0 0 0 0 0 0 0 0 0 0 0 0 0 0 75
100 99 33 99 100 100 92 41 100 85 100 92 61 97 100 100 99 18 5 0 0 0 0 0 0 0 0 0 0 0 0 0 0 0 0 0 0 0 0 0 0 0 0 0 0
100 75 66 99 7 94 100 88 41 88 100 100 100 100 100 100 9 5 1 0 0 0 0 0 0 0 0 0 0 0 0 0 0 2 0 0 0 0 0 0 0 0 0 0 0
88 100 100 100 12 5 62 39 65 100 100 100 100 100 100 100 40 5 0 0 0 0 0 0 0 0 0 0 0 0 5 5 5 5 0 4 0 0 0 0 2 0 0 0 0
95 100 58 5 88 19 84 95 58 100 100 100 98 100 32 26 96 0 0 4 5 0 0 0 0 0 0 0 4 5 5 5 5 4 5 5 4 0 0 0 2 5 5 4 0
84 100 99 51 24 67 100 100 85 51 100 100 100 100 100 84 3 1 5 5 0 0 0 0 0 0 0 0 2 5 5 7 5 0 5 3 5 0 0 0 0 0 3 5 0
100 100 96 47 5 94 100 98 84 90 99 100 100 100 85 4 0 5 5 5 0 0 0 0 0 0 0 0 3 5 5 5 5 5 5 6 5 0 0 0 0 0 4 2 2
10 99 2 36 94 99 50 69 84 100 100 100 100 100 100 14 5 5 5 2 0 0 0 0 0 0 0 0 4 5 5 5 5 5 25 7 5 5 2 0 0 0 5 5 15
67 31 6 20 100 94 77 90 87 100 100 100 100 100 93 14 5 5 5 0 0 0 0 0 0 0 0 0 4 5 5 7 12 5 5 5 5 5 5 0 5 5 26 25 52

GFSSW_prec_cloud_297.txt.gz
Cloud_Cover
100 100 100 100 65 100 100 100 98 83 95 22 87 100 43 2 0 0 0 0 0 5 5 100 77 0 0 0 2 8 0 0 2 2 80 0 66 3 0 3 0 4 0 0 0
94 99 100 100 14 97 100 100 98 9 77 15 5 3 2 7 0 1 0 0 5 5 43 53 0 0 5 5 5 4 0 0 0 1 4 1 0 0 0 3 4 4 29 1 0
98 26 100 51 20 100 100 100 98 5 73 36 48 5 5 70 5 4 0 0 5 5 6 0 4 0 66 100 100 3 0 0 0 5 18 8 2 0 0 48 92 22 65 3 0
77 99 55 6 91 100 100 100 100 100 100 100 100 100 94 100 5 4 0 0 7 30 0 1 0 13 100 100 100 22 2 1 0 14 100 96 9 4 0 5 20 100 62 1 0
32 100 100 32 52 100 100 100 100 71 100 100 100 100 100 88 5 2 30 1 5 49 96 80 5 100 100 100 6 2 0 3 46 40 28 62 57 7 1 0 6 24 90 5 0
5 100 100 100 100 25 90 99 100 90 95 32 25 36 5 5 87 100 59 5 1 32 100 98 100 100 96 0 0 0 0 58 86 30 39 40 18 2 2 0 0 5 2 0 0
40 6 68 100 100 25 97 76 100 100 92 98 61 56 58 99 100 56 96 3 2 99 100 100 100 19 0 0 0 0 0 3 34 79 4 0 0 0 1 0 0 0 0 0 0
8 33 5 43 100 100 71 100 100 100 100 100 100 81 26 14 5 3 5 1 13 75 100 97 4 0 0 2 10 5 5 3 0 0 0 0 0 55 1 0 2 95 0 1 5
96 22 13 76 27 20 87 77 26 81 100 98 98 62 50 9 50 36 5 30 90 100 100 55 6 2 5 82 7 5 2 4 0 0 0 0 1 2 0 0 0 49 0 24 94
100 36 75 98 67 40 93 42 89 85 100 99 98 29 9 5 4 4 15 98 100 100 100 100 5 2 100 54 5 0 0 0 4 2 4 20 88 0 0 0 0 0 0 1 100
100 100 98 98 22 72 90 75 96 87 95 100 96 11 6 5 5 5 100 100 100 91 35 5 85 100 100 82 61 5 1 0 0 0 15 5 72 2 0 0 0 0 0 0 5
95 83 93 71 100 100 100 98 99 97 93 100 36 14 60 39 94 100 100 100 95 6 39 100 100 100 100 57 44 10 0 3 0 0 30 30 77 2 0 0 0 0 0 0 0
100 97 67 68 100 100 100 73 100 100 100 100 67 100 100 100 100 45 5 19 5 10 100 100 100 100 100 45 50 0 3 2 3 3 0 5 90 100 100 2 0 0 0 0 0
100 100 100 100 100 100 100 100 100 100 100 100 100 100 100 98 53 26 5 25 5 19 100 100 100 100 65 24 2 5 0 0 0 0 100 4 20 66 100 84 0 0 0 0 0
100 97 100 100 76 100 100 100 100 100 99 100 100 100 100 100 100 100 96 10 100 100 100 100 26 5 47 1 0 0 0 0 0 0 0 42 23 100 100 100 12 0 0 0 0
100 100 100 98 89 27 63 100 100 100 100 84 96 100 100 100 100 100 100 100 100 100 100 5 5 5 1 0 0 0 0 1 2 8 100 80 0 39 100 92 5 0 0 0 0
78 100 100 100 57 5 81 97 100 100 97 77 100 100 100 100 100 100 100 76 88 100 10 5 4 2 0 1 0 0 0 94 88 54 62 10 0 25 21 49 0 0 0 0 0
5 31 99 100 100 100 99 90 97 46 42 99 78 88 99 100 100 100 100 100 100 85 5 5 4 0 0 1 57 6 1 13 97 100 65 2 58 100 15 0 0 0 0 0 0
34 6 5 68 100 56 96 100 100 97 23 100 100 100 100 100 100 100 100 100 100 96 9 5 29 0 0 0 0 15 5 2 0 8 8 92 54 1 0 0 0 0 0 0 0
100 92 19 93 100 100 66 100 100 100 100 100 100 100 99 98 100 100 100 99 12 65 73 86 71 1 0 0 0 0 1 0 36 46 82 100 11 30 2 2 5 5 4 0 0
100 58 23 13 97 100 100 100 22 100 90 100 100 100 100 100 84 20 5 4 5 5 100 100 52 74 0 0 5 2 0 0 0 1 6 3 100 35 6 4 2 5 5 3 0
21 2 66 5 83 96 24 52 100 100 90 100 100 100 98 100 55 54 72 33 51 5 100 100 61 2 86 5 0 0 0 0 0 5 5 3 0 0 0 0 0 0 4 3 0
0 0 42 96 12 98 86 100 100 100 100 87 48 23 33 65 88 100 48 91 5 34 100 100 35 4 6 13 5 0 0 0 0 0 0 0 0 0 0 0 3 4 3 5 5
0 0 4 10 97 84 41 71 100 100 100 100 100 100 100 97 99 70 30 34 90 98 100 100 68 5 5 84 76 72 2 0 0 0 0 0 1 27 1 0 0 2 5 5 5
7 2 2 5 100 100 72 61 19 88 94 99 32 97 70 75 100 98 10 100 67 100 100 100 100 3 5 5 2 0 1 1 1 0 0 0 0 0 1 4 1 3 5 0 0
86 6 8 0 100 100 96 100 94 5 82 18 49 99 100 96 38 88 5 100 100 100 100 100 100 14 5 1 4 5 2 0 0 0 0 0 0 0 0 0 0 0 5 2 0
6 34 12 2 6 100 100 100 81 6 83 21 90 72 100 18 100 100 12 55 100 100 100 100 100 86 8 5 5 53 16 4 0 0 0 0 2 5 5 4 4 5 5 5 5